RH
75 75 75 76 75 75 75 76 76 76 76 78 78 80 81 84 83 73 32 18 30 85 69 61 56 55 57 66 62 55 62 51 48 50 43 42 49 44 43 50 48 50 55 52 62
76 75 76 76 76 76 76 76 76 75 76 76 78 80 80 82 75 46 31 47 60 80 56 61 57 57 56 63 61 64 62 43 38 38 41 43 42 46 49 47 54 61 53 59 62
75 76 76 76 76 76 77 78 77 77 78 77 78 79 80 75 38 8 46 54 72 68 49 44 49 48 57 61 60 59 49 38 32 31 34 40 42 40 47 49 49 64 67 64 64
76 77 78 78 77 77 77 77 77 79 79 78 78 78 79 76 10 20 80 64 79 46 48 50 54 52 55 59 52 55 49 39 34 30 34 42 38 43 42 36 35 51 58 62 63
77 78 78 78 78 78 79 81 82 80 80 79 77 75 71 39 12 38 62 60 65 49 45 49 57 51 54 56 51 53 45 41 36 32 29 36 46 41 43 43 42 52 59 61 59
78 80 81 82 81 81 82 83 83 81 80 79 76 72 60 12 5 24 34 53 51 44 39 42 47 44 46 48 51 40 44 37 30 27 32 39 40 41 41 48 53 57 58 57 56
80 82 83 82 81 81 81 82 83 80 80 79 76 70 63 10 15 18 39 47 44 35 39 34 41 43 32 22 29 25 30 25 26 27 29 35 47 46 42 49 56 55 56 56 56
82 84 83 82 82 81 81 83 84 83 80 79 77 67 28 17 17 15 39 45 50 35 27 34 39 38 26 17 16 23 26 26 24 28 28 32 34 38 43 47 52 54 55 57 56
84 84 84 82 83 81 82 83 81 78 80 76 74 73 18 35 19 10 29 30 43 38 27 27 28 32 23 30 23 20 20 24 22 24 26 33 29 29 41 43 51 54 53 54 56
84 84 84 82 81 80 84 73 76 75 70 64 58 57 27 16 21 17 14 28 39 36 28 22 27 29 22 24 24 24 22 19 21 16 21 32 29 30 42 42 47 51 51 52 52
85 85 84 84 80 83 66 36 29 34 33 47 45 38 31 17 21 20 12 21 22 30 28 23 23 26 22 22 17 17 19 21 17 14 20 21 21 25 40 42 45 46 50 48 47
86 86 85 85 83 84 46 33 37 40 52 32 32 29 30 23 20 20 10 19 18 24 23 27 25 17 17 18 19 17 17 20 16 12 15 15 20 25 38 43 44 45 49 47 43
84 85 86 84 86 58 53 42 41 43 52 30 28 24 20 20 22 18 10 10 16 16 21 19 15 16 20 20 20 17 16 17 17 13 20 22 21 36 39 42 42 42 42 45 44
85 85 86 87 51 58 36 46 47 48 34 20 20 18 17 17 21 14 12 10 14 16 16 15 13 17 19 19 18 17 13 13 17 19 21 25 24 38 36 47 47 44 43 40 41
84 84 85 87 69 58 38 49 46 49 15 18 15 12 16 17 13 18 12 12 13 14 17 18 17 20 21 17 18 15 12 14 14 18 18 18 22 19 38 44 44 42 42 40 36
85 85 87 68 68 57 52 53 46 28 23 21 16 16 18 16 13 18 16 14 11 16 14 13 13 16 18 16 16 14 15 15 17 15 23 19 19 19 30 40 37 37 37 40 36
86 87 80 61 47 43 54 41 30 33 20 30 28 25 25 22 14 18 21 20 18 20 21 16 14 14 14 18 16 14 15 20 22 22 22 15 18 20 16 23 25 32 36 35 37
88 87 68 55 48 51 46 27 43 28 37 29 28 27 27 26 23 23 21 21 16 14 15 18 20 14 13 14 16 17 12 13 24 17 14 18 21 18 13 12 22 20 24 29 34
86 63 48 45 43 48 40 26 33 43 39 38 32 33 32 28 29 26 24 19 17 15 18 17 16 12 12 11 12 17 18 9 12 18 16 13 16 14 16 14 14 23 24 27 30
78 70 48 41 46 46 39 51 49 42 46 35 44 37 42 35 33 28 31 37 28 30 30 19 21 13 11 10 11 13 12 17 15 23 20 14 19 14 21 17 17 19 24 24 25
70 54 32 43 39 42 48 57 55 48 50 45 42 42 40 45 38 34 40 38 33 34 36 31 21 20 14 15 13 14 15 13 12 13 14 13 10 15 19 19 17 16 20 20 21
75 47 39 43 43 54 50 53 62 55 53 49 43 45 46 44 39 40 47 44 31 36 46 41 24 23 18 12 10 11 14 14 17 28 16 12 11 12 14 15 16 16 16 17 19
88 75 45 40 65 65 58 57 48 58 60 72 58 51 48 48 46 50 48 39 32 37 43 38 37 27 23 16 15 15 13 12 12 11 25 16 12 11 13 14 15 17 17 22 27
80 61 48 52 59 69 73 61 57 46 64 78 88 55 55 55 55 53 48 42 34 37 47 40 40 36 23 25 29 27 18 14 13 18 17 17 14 12 12 12 14 15 17 18 27
89 72 70 66 60 64 75 68 64 61 50 70 96 93 88 67 51 55 50 44 34 48 35 38 40 38 35 31 30 32 28 23 21 17 19 16 18 15 13 15 15 16 19 22 24
89 77 85 84 68 66 62 62 64 58 59 54 84 86 74 88 63 61 55 53 48 43 42 41 36 44 34 28 26 30 25 24 21 20 19 17 17 13 13 14 15 15 15 19 22
92 85 98 88 86 71 67 62 72 56 53 57 82 64 58 48 47 43 39 41 42 49 49 49 40 39 36 29 29 30 24 22 22 19 18 22 18 15 16 18 20 22 22 23 23
Wind_Speed
21 21 22 22 22 21 21 21 20 20 19 18 18 17 17 16 13 5 11 13 11 12 21 20 15 15 10 6 1 0 2 3 3 4 2 12 7 6 5 14 4 5 8 16 23
22 22 23 23 23 22 22 21 21 21 20 18 17 17 16 15 5 12 15 12 15 24 23 25 20 20 7 8 4 3 3 5 4 4 4 11 11 12 7 14 6 10 14 23 23
23 23 23 24 24 24 24 22 22 22 21 18 16 15 15 12 6 8 3 17 20 23 19 17 21 17 8 6 7 7 5 2 4 8 5 10 10 10 11 12 10 18 23 25 23
23 24 24 24 25 25 25 25 24 23 21 19 15 13 13 4 7 0 8 19 21 19 23 18 19 11 9 10 9 6 11 8 3 2 3 12 9 9 11 3 11 19 26 26 23
23 24 24 25 26 27 27 26 25 24 21 18 13 8 4 4 13 0 13 16 22 20 24 17 23 12 12 9 9 11 5 4 11 11 8 10 13 10 12 5 15 22 25 24 23
23 23 24 25 26 27 28 27 26 25 22 16 10 4 3 9 3 6 14 21 22 22 21 17 16 12 9 6 13 6 12 10 8 11 7 12 9 7 10 15 18 24 26 23 23
23 23 23 24 27 28 28 28 28 26 21 15 11 7 5 16 7 6 16 16 24 25 25 20 9 16 5 5 10 10 9 6 11 10 6 9 8 14 12 18 21 21 23 22 21
25 26 26 26 28 29 29 28 25 15 7 8 14 7 11 2 6 1 10 9 13 15 17 11 7 14 3 3 1 4 5 7 6 12 8 15 12 16 19 20 21 21 20 21 22
24 26 28 29 30 32 29 23 13 12 15 18 10 5 8 5 6 12 12 9 15 13 9 10 9 5 4 12 7 2 7 9 4 14 8 15 12 14 23 20 21 22 21 21 20
25 26 29 30 31 33 29 11 2 9 8 3 5 5 6 4 6 8 10 19 10 16 9 8 10 12 10 12 13 7 7 5 8 6 12 16 17 5 22 23 23 23 21 21 22
25 26 27 32 31 32 14 1 3 3 3 8 2 7 4 4 7 5 18 16 11 17 15 15 13 22 23 17 12 8 7 13 9 6 6 13 16 13 19 21 21 22 22 22 24
25 26 27 30 32 19 7 7 7 7 16 14 22 18 16 4 2 12 21 14 14 16 15 9 25 19 14 16 19 17 16 17 8 6 5 7 11 10 18 24 24 24 24 24 20
25 26 28 29 29 4 5 7 7 4 7 10 8 8 9 13 7 15 26 16 20 21 27 24 6 20 17 15 19 23 24 17 8 4 5 8 12 7 13 15 18 21 21 17 23
24 25 25 31 4 7 3 6 9 3 6 7 5 5 7 7 10 13 25 16 12 26 21 21 19 23 22 23 21 23 19 20 17 9 10 5 13 8 13 18 21 21 22 24 23
24 24 24 11 6 6 6 12 11 4 8 5 4 5 8 10 2 12 26 15 20 18 16 17 24 21 25 28 20 16 14 17 19 14 12 14 10 14 8 15 22 23 25 25 26
26 26 24 1 3 7 11 14 4 5 11 2 4 2 5 10 3 4 16 13 8 11 19 18 7 23 17 20 22 11 10 8 3 9 17 21 14 15 12 19 18 22 24 24 25
25 26 13 4 7 16 10 4 5 8 8 7 5 7 6 3 5 5 18 26 17 17 16 20 13 15 17 17 19 20 18 8 11 13 13 13 14 18 9 17 19 21 25 26 27
26 21 6 3 9 11 5 3 9 5 6 10 10 14 3 6 1 2 13 24 22 19 15 19 18 20 19 20 13 28 23 9 16 16 13 7 17 13 17 19 17 19 21 22 22
21 6 3 3 12 5 4 5 3 7 9 13 13 4 1 4 6 4 2 20 19 12 14 19 19 13 21 18 20 19 27 21 12 1 6 13 14 11 11 17 21 19 18 19 23
8 5 5 12 8 2 2 4 4 10 15 8 5 7 6 10 5 4 3 8 6 3 4 5 7 13 26 17 22 14 19 11 14 15 16 7 10 15 18 20 19 20 20 20 21
3 5 7 17 3 3 3 6 7 9 14 8 7 8 7 6 7 5 7 8 13 7 5 3 6 4 16 23 22 12 20 13 12 12 10 9 11 7 16 19 22 23 22 22 21
3 3 9 11 6 3 5 12 9 9 8 5 6 6 4 5 4 5 4 6 14 11 1 4 4 11 12 12 20 24 19 25 13 12 15 8 7 2 11 10 15 18 18 18 18
3 3 4 6 5 7 8 7 10 9 8 7 5 7 5 4 4 5 5 4 13 12 7 6 3 11 10 10 9 24 22 23 21 14 19 13 6 9 9 8 11 12 12 12 11
3 4 2 3 1 4 8 6 9 8 3 8 6 7 6 1 2 3 5 5 10 9 10 5 1 9 13 6 5 5 13 23 24 18 16 22 16 9 11 9 13 14 14 10 10
2 2 3 4 5 11 5 6 12 8 7 4 2 7 7 2 3 4 7 7 4 9 6 6 2 5 6 8 8 10 13 11 18 24 24 19 24 18 15 13 13 10 8 11 11
2 3 1 5 8 8 6 4 9 9 9 8 4 10 11 3 5 7 8 4 3 5 5 7 2 3 10 10 12 14 15 15 17 18 19 22 25 8 14 19 17 17 17 14 14
1 2 2 1 4 7 4 4 9 16 7 6 9 15 12 11 10 14 12 12 13 10 5 5 3 4 7 8 14 17 21 20 17 15 16 22 16 15 19 13 18 18 16 16 14
Wind_Direction
354 352 349 346 343 339 336 333 329 326 324 323 324 326 326 326 318 174 236 220 181 153 146 148 160 155 160 164 200 198 291 264 226 201 190 155 132 123 115 143 174 160 148 140 152
350 348 346 342 338 335 331 327 324 320 319 318 320 321 323 329 298 255 240 201 168 144 154 161 160 157 167 166 185 211 239 223 183 225 221 172 159 150 152 159 134 98 118 139 153
347 345 342 338 335 331 327 323 318 314 312 313 315 317 319 325 275 250 204 190 175 160 160 164 153 161 165 163 184 179 232 239 217 219 197 175 174 160 146 185 182 160 149 154 163
345 342 338 335 331 327 323 318 314 310 306 306 308 312 316 279 260 354 343 162 170 164 151 150 164 176 184 185 191 214 241 250 280 139 196 188 168 179 179 146 182 165 159 159 170
342 338 335 332 328 324 319 315 312 306 299 295 296 304 308 224 248 80 112 141 162 163 163 167 173 179 198 189 179 237 238 214 254 278 249 183 190 177 194 97 148 152 160 168 174
340 335 332 329 325 321 317 315 309 300 291 281 266 239 215 245 234 187 148 155 168 173 177 171 184 181 188 204 208 203 225 264 266 266 192 188 190 200 167 134 144 160 166 173 183
339 334 331 329 325 321 320 317 308 297 279 260 224 189 219 242 103 158 167 174 175 179 180 188 169 186 173 192 230 251 258 259 234 212 203 186 197 216 153 149 155 175 170 177 187
341 335 335 333 327 323 324 321 317 313 274 208 180 177 248 216 245 232 168 176 197 196 197 170 175 206 231 321 242 228 212 225 153 192 184 179 246 210 166 171 168 174 182 182 190
340 337 335 335 330 327 327 326 328 56 102 121 135 218 250 122 205 193 180 174 175 177 185 177 185 200 221 239 270 235 228 216 208 192 154 200 255 203 180 184 171 180 188 189 191
341 340 336 335 331 329 327 326 170 92 116 205 105 242 231 220 165 154 175 147 154 167 183 168 199 215 206 199 211 214 223 228 232 166 190 206 240 196 188 189 183 185 188 195 194
340 339 339 331 334 329 334 277 322 193 306 238 203 284 284 321 150 154 164 144 139 170 183 193 197 210 213 211 226 220 238 240 236 238 223 224 245 215 194 201 195 189 192 198 202
341 339 338 331 334 327 328 64 72 288 301 252 245 255 260 328 219 154 171 159 172 182 175 176 223 209 206 206 217 225 234 243 257 261 279 251 258 225 196 207 198 194 193 202 198
341 339 334 334 329 12 356 78 10 317 257 286 219 228 222 187 223 184 182 191 190 192 197 201 184 203 197 199 207 219 223 219 234 338 239 256 253 206 212 212 206 210 207 207 199
339 338 332 334 328 346 74 335 337 246 275 259 225 240 171 164 232 197 197 178 189 205 198 221 210 192 204 216 205 222 218 238 244 258 250 232 266 209 207 205 208 208 207 207 206
337 335 332 342 302 318 328 329 320 195 285 111 144 142 152 200 26 195 186 205 200 184 177 200 200 196 211 209 203 227 205 220 239 246 263 233 251 247 206 212 216 211 212 210 208
335 331 334 328 266 271 307 311 192 226 242 99 89 148 173 222 238 102 188 217 203 186 213 206 207 193 206 208 200 187 172 191 207 242 238 238 234 246 206 216 216 216 220 214 212
330 323 330 313 335 325 315 283 209 236 351 15 359 346 319 272 219 202 189 193 189 187 192 201 189 201 191 184 199 196 180 183 216 217 238 218 228 240 232 217 217 209 216 215 210
328 318 327 255 307 325 309 232 231 19 350 351 335 308 217 345 193 274 194 193 205 205 188 200 208 194 188 202 185 201 199 207 215 233 242 191 237 235 221 234 230 233 223 219 213
326 338 336 348 323 313 301 229 342 9 350 331 321 307 338 2 330 317 173 202 200 214 212 204 221 191 178 194 183 193 212 216 259 146 261 221 247 263 238 224 216 220 224 216 211
329 333 313 338 336 312 284 306 320 13 339 327 323 353 342 349 353 357 83 0 254 38 315 186 218 200 193 189 200 186 177 183 214 231 238 214 248 235 197 212 211 215 212 220 218
6 346 356 337 290 37 18 322 307 336 339 321 322 308 327 343 326 2 28 49 5 329 4 335 236 126 171 204 188 179 188 206 202 223 229 247 244 206 218 212 212 215 212 214 216
354 344 354 334 38 13 350 323 307 328 340 313 304 313 311 343 326 20 78 41 360 347 29 31 284 221 202 187 215 204 195 197 206 184 226 265 252 265 229 221 229 225 222 228 226
359 295 337 330 37 354 332 305 313 343 340 327 321 353 341 345 298 45 31 34 5 16 22 352 222 199 225 211 197 218 215 206 218 234 215 211 206 252 252 262 231 238 238 232 222
330 336 337 42 58 354 338 319 327 340 348 348 354 350 342 337 343 331 357 6 348 7 347 317 326 265 226 239 20 230 220 211 213 222 223 225 236 227 268 250 259 261 263 249 233
354 351 344 323 345 325 303 297 308 350 344 12 30 31 342 290 318 348 8 334 357 7 6 5 305 326 307 299 292 269 262 244 236 234 231 238 237 231 246 280 277 276 268 277 235
308 323 335 288 287 314 315 305 310 335 331 314 303 7 333 358 339 313 344 346 341 353 26 356 283 305 300 293 284 275 255 251 244 243 256 260 261 262 239 238 252 272 286 280 275
216 226 177 281 276 294 297 301 314 324 304 335 327 325 311 324 327 306 283 270 271 291 314 310 293 248 257 305 309 269 243 241 243 243 240 242 251 254 248 239 247 247 249 250 244